Вернуться в каталог

KITA-53

АктивенSSO
NORAD 69904·PAYLOAD·🇺🇸 United States

Запущен Jul 7, 2026 с Vandenberg Space Force Base

Loading…

Ближайшие Пролёты (ближайшие 24 часа)

TLE

СвежийSource: Space-Track

Эпоха: Sep 14, 2026, 12:05 UTC

1 69904U 26156AM  26257.50352558  .00000844  00000-0  89434-4 0  9991
2 69904  97.7433 156.7636 0004639 281.0282  79.0415 14.91701155 10205

Отслеживайте KITA-53 в реальном времени с AllMySat

Download on the App Store